Theta_e
342 332 321 320 320 318 317 317 319 321 321 321 320 321 321 321 321 322 322 322 321 321 321 321 321 321 320 319 319 318 318 318 319 323 332 333 332 326 326 328 328 328 328
342 333 321 321 320 320 319 318 319 319 319 320 321 321 321 322 322 323 323 325 328 330 329 327 327 326 324 323 323 323 322 321 323 331 333 335 334 333 321 325 331 328 329
341 325 323 322 321 321 320 320 319 319 320 320 321 321 321 322 333 330 333 335 336 337 337 331 326 323 324 324 324 324 324 324 334 335 336 338 337 336 323 320 323 327 330
340 324 324 324 322 322 322 321 321 321 321 321 321 321 322 323 334 333 332 332 332 333 330 326 327 327 327 326 326 327 327 327 334 336 334 336 336 331 325 324 321 321 323
340 326 326 325 324 324 323 323 323 323 323 323 324 324 324 325 325 327 327 328 328 327 328 328 327 327 327 328 328 328 328 331 334 334 332 332 330 326 325 327 327 326 326
339 332 328 327 326 325 325 325 325 325 325 326 329 330 329 328 327 328 329 329 329 329 329 329 329 328 327 324 320 319 327 330 327 328 329 327 316 329 320 314 323 327 328
342 340 330 328 327 327 327 327 327 327 327 330 335 337 334 331 331 331 330 330 330 329 328 325 318 312 310 309 308 308 321 321 322 320 322 322 319 320 312 310 310 314 324
342 342 332 330 329 329 329 329 329 329 333 337 336 334 333 332 331 331 331 329 327 320 313 310 308 308 308 307 307 307 313 317 316 320 322 320 314 310 306 305 305 305 307
344 344 338 332 331 330 331 332 331 331 331 331 331 332 332 332 331 330 328 322 315 310 308 308 307 307 307 307 306 305 305 314 317 319 318 314 309 305 304 303 303 303 303
345 344 340 333 334 334 335 334 332 331 331 331 332 332 331 331 330 326 319 313 309 308 308 307 307 306 306 305 305 304 307 314 318 318 315 308 306 303 303 302 302 302 302
344 342 339 341 339 337 334 333 333 332 332 332 332 332 331 330 324 317 311 309 308 307 307 306 305 305 304 305 303 304 311 315 315 313 308 303 303 302 302 301 302 302 302
341 340 339 339 340 338 336 333 334 333 333 333 331 331 329 326 318 311 309 307 307 306 305 305 304 304 306 308 307 309 311 313 312 309 303 302 301 301 301 300 301 301 302
341 340 339 338 340 339 336 333 335 333 333 332 330 329 325 321 312 308 308 307 306 305 304 304 304 305 306 308 305 307 309 313 312 307 301 300 300 300 300 299 300 300 300
340 339 339 338 338 338 336 335 334 333 333 331 329 328 324 314 310 308 307 307 306 306 306 305 304 303 302 302 302 305 310 312 312 307 302 300 299 299 299 299 299 302 304
340 338 338 338 338 336 335 332 333 332 331 330 327 327 321 312 308 309 310 308 308 307 304 305 303 303 302 302 303 303 307 310 309 306 303 300 298 298 298 297 297 304 306
339 338 338 338 339 336 334 332 332 331 330 327 324 323 317 308 308 309 308 307 308 305 305 305 304 303 303 302 302 305 307 306 308 305 302 301 299 298 297 297 297 298 302
338 337 336 337 336 334 333 332 331 330 328 325 322 320 312 308 309 308 307 306 305 305 305 304 303 303 302 305 302 302 303 303 302 302 302 300 299 298 298 297 297 297 297
339 337 338 338 337 335 333 331 330 327 325 323 320 316 309 308 308 307 306 306 306 304 302 302 302 304 305 306 306 306 306 303 300 300 299 300 298 298 298 296 296 296 295
341 338 337 338 337 335 333 330 329 325 323 319 317 314 308 307 308 306 306 305 305 303 303 303 305 305 306 307 306 306 305 304 302 301 298 297 296 297 296 295 296 296 296
341 341 339 336 335 331 331 326 326 320 320 316 315 311 307 307 307 305 305 306 304 303 303 302 303 305 305 306 305 305 305 303 303 301 299 298 297 295 295 295 296 296 297
340 340 338 335 333 329 327 323 320 318 316 313 312 309 307 307 306 305 305 305 303 303 302 302 302 302 306 305 304 304 303 301 301 300 299 298 297 296 295 294 297 297 296
338 339 338 335 333 330 327 321 318 316 314 312 310 307 307 306 305 304 305 304 303 303 302 302 301 300 301 302 304 306 305 305 304 300 300 298 296 295 296 295 294 294 295
338 339 337 334 333 330 327 321 316 315 313 311 310 308 307 306 304 304 304 303 302 303 303 301 301 302 301 301 305 306 305 307 305 302 301 298 296 295 295 295 294 294 293
338 337 336 334 332 329 326 323 317 315 313 311 310 308 307 306 304 303 303 302 302 302 302 300 300 301 302 300 300 303 305 305 304 303 302 301 299 296 295 295 294 294 293
337 336 336 334 331 330 327 321 318 315 313 312 310 309 307 305 304 302 302 302 302 301 301 300 300 300 302 301 298 297 297 298 300 302 302 301 299 297 297 294 294 294 293
334 335 335 333 329 328 326 322 319 315 313 311 310 309 307 306 304 302 301 301 301 301 301 301 299 299 299 301 300 300 298 298 298 296 297 299 299 297 297 295 294 294 293
Wind_Speed
25 24 24 21 20 19 18 17 16 13 12 10 10 9 9 9 9 9 9 9 8 7 7 7 7 7 8 8 9 9 10 11 12 13 13 14 14 14 10 8 8 12 14
29 27 26 23 21 20 19 18 16 14 12 11 10 10 9 9 9 9 9 8 7 6 5 5 5 6 7 8 9 10 11 12 15 15 13 8 11 13 11 8 7 9 11
25 32 28 24 22 21 19 18 16 15 13 12 11 10 9 9 9 8 9 8 7 6 3 4 4 6 7 7 7 8 9 12 15 14 11 8 12 12 8 8 7 7 9
24 32 29 26 23 22 20 18 16 15 13 12 11 10 9 9 9 9 9 8 6 4 1 2 4 4 4 5 6 7 9 12 15 14 10 4 6 9 6 7 8 8 7
22 33 30 27 24 23 21 19 17 15 14 12 11 10 9 9 8 7 8 6 5 3 2 1 1 2 3 4 5 7 11 14 15 9 6 9 11 10 7 7 7 8 9
22 29 30 28 25 23 22 19 18 16 14 12 10 9 10 10 9 8 7 7 5 4 2 1 2 3 3 5 7 9 14 15 15 10 5 9 7 9 10 8 8 8 9
22 27 31 28 26 24 22 20 18 16 15 12 11 12 11 9 9 8 7 6 5 3 3 3 3 4 4 5 6 8 11 8 12 8 7 9 6 5 8 11 11 11 9
31 28 28 29 26 25 22 20 17 16 16 17 16 12 11 9 9 9 8 7 6 5 5 3 3 3 3 3 5 6 11 13 7 5 6 6 4 6 9 11 10 10 11
30 30 27 30 29 25 23 22 20 18 17 15 12 11 10 10 10 9 8 7 7 5 4 2 1 1 2 3 4 6 9 12 3 8 7 5 6 8 11 11 12 11 11
25 29 28 30 27 27 26 23 21 19 17 15 13 12 12 11 10 10 10 8 5 4 3 3 2 2 2 2 4 6 11 11 5 9 5 3 6 10 11 12 12 10 9
25 24 26 30 31 29 27 25 23 21 19 16 15 14 14 13 13 12 8 7 6 5 4 4 4 3 2 3 4 7 11 7 11 9 3 3 6 9 11 12 11 11 8
33 29 29 30 32 31 29 27 26 24 22 20 19 17 14 14 15 12 9 8 7 6 5 4 4 3 5 5 2 6 9 9 12 5 3 3 6 9 10 11 10 11 9
35 33 33 33 34 31 30 30 29 27 24 23 21 20 19 18 15 12 11 9 8 6 6 5 5 4 5 9 5 5 11 8 9 6 4 5 6 7 8 8 9 10 8
39 38 39 36 34 31 30 32 30 28 26 26 25 25 27 21 18 14 12 12 10 8 5 5 4 4 6 6 5 10 14 8 12 4 6 4 4 6 7 8 8 8 11
39 41 43 39 37 31 28 29 27 25 25 26 28 30 26 22 20 16 14 10 8 9 10 9 6 6 6 6 6 6 13 10 9 7 5 6 6 6 7 6 7 9 10
39 43 43 42 38 36 30 28 26 27 29 28 29 30 26 25 22 20 17 17 16 11 9 9 7 7 7 6 7 8 8 10 8 5 7 7 6 6 6 7 7 6 7
38 40 46 43 40 40 36 33 33 32 29 31 30 29 29 28 23 20 19 18 16 16 13 11 11 9 8 6 5 6 6 6 7 8 4 7 7 7 6 7 7 7 10
40 42 41 44 41 42 40 37 35 35 33 31 31 31 32 30 24 22 21 19 17 14 14 13 11 9 6 4 5 7 6 3 2 3 6 4 4 7 7 7 8 8 9
38 39 34 42 43 43 40 39 37 33 35 32 34 32 34 31 27 25 22 22 17 17 16 14 13 11 12 11 10 10 6 3 4 4 1 1 2 2 6 7 7 8 11
33 42 36 36 43 41 39 39 36 36 33 35 35 33 35 33 29 27 25 22 20 19 17 17 17 16 12 12 9 9 10 9 8 5 1 4 3 1 2 5 7 9 13
29 41 39 38 42 40 40 40 41 41 38 37 34 35 35 34 31 30 28 23 23 20 19 19 18 19 19 18 17 10 9 8 7 6 5 6 1 5 4 2 4 3 10
34 41 43 42 41 43 42 41 39 39 38 37 34 35 32 35 34 32 28 25 25 23 23 21 19 19 19 18 12 5 7 6 9 8 8 8 4 2 6 6 4 5 8
37 39 45 44 44 45 41 38 33 33 33 34 35 37 33 35 34 33 30 28 28 27 23 23 21 20 18 19 18 13 8 7 11 10 10 10 7 7 5 7 6 6 4
38 39 42 44 44 45 41 36 36 38 38 38 38 37 34 35 34 35 32 31 30 27 26 25 24 20 17 16 21 21 13 11 8 9 10 10 8 7 5 5 8 8 7
41 37 40 42 44 42 41 36 37 36 37 35 36 36 36 36 35 37 34 34 31 30 28 26 26 25 22 17 15 17 17 15 14 8 13 11 6 6 8 6 7 6 8
31 31 35 40 40 40 40 40 36 39 37 36 36 36 37 37 37 38 37 35 33 32 31 29 26 25 24 21 18 15 11 8 7 9 9 4 5 8 10 8 7 5 6
Wind_Direction
173 177 172 167 160 151 148 146 148 159 162 162 155 148 142 134 127 121 115 109 104 101 98 95 90 82 74 69 65 63 61 60 60 58 45 39 33 7 20 40 25 27 24
169 178 172 168 163 157 154 152 153 160 164 161 161 156 148 144 139 134 121 110 100 92 88 78 77 72 59 55 54 57 60 64 68 64 38 42 16 358 351 16 12 15 16
167 171 169 168 166 161 158 157 157 163 167 166 164 160 150 143 131 137 126 120 116 103 81 47 49 46 50 51 54 57 63 72 81 73 57 85 353 339 349 2 5 355 348
173 170 168 169 169 166 163 162 162 165 169 170 167 166 160 155 140 143 145 147 153 158 250 342 33 53 49 51 57 62 68 81 79 62 99 150 344 356 1 358 356 356 347
178 171 170 170 173 169 167 168 167 168 173 173 171 168 169 172 171 169 172 180 188 202 217 250 24 46 55 67 71 72 80 87 80 58 313 266 287 327 344 347 344 342 346
169 174 170 172 174 174 172 172 172 173 176 177 171 170 176 183 182 184 185 189 197 207 207 160 102 93 85 79 81 88 100 92 75 49 347 319 346 23 352 353 344 339 336
160 185 174 175 177 177 177 177 179 178 179 175 166 174 180 176 184 192 191 192 186 164 156 135 107 94 86 83 84 94 120 105 106 63 302 302 322 3 343 340 352 351 346
181 185 181 176 179 180 181 185 181 179 168 166 177 187 189 187 189 190 183 177 167 160 145 131 113 95 86 78 84 97 109 95 85 116 270 309 330 334 344 350 349 341 347
190 188 189 180 182 185 182 182 183 181 183 187 191 193 193 193 188 185 180 173 165 163 155 145 130 105 89 92 93 98 118 95 144 213 247 307 9 345 353 348 350 354 354
185 193 193 187 181 183 185 189 190 191 192 193 194 191 189 189 189 188 181 178 176 182 184 182 176 150 124 99 94 106 116 114 201 247 285 18 348 350 351 354 358 8 8
191 198 203 185 187 188 189 191 193 193 193 193 192 186 188 191 195 197 185 187 194 195 191 177 161 148 115 85 102 114 121 154 226 258 298 6 346 352 357 359 357 13 0
201 201 199 195 193 194 194 191 193 192 192 194 191 185 185 194 199 193 192 199 197 190 178 172 165 144 107 54 91 135 137 204 238 281 334 2 346 353 -0 7 358 10 2
195 192 195 199 197 196 199 194 195 194 193 194 191 178 175 201 197 185 196 198 192 184 183 187 181 196 163 187 199 145 118 247 271 325 353 357 354 353 359 4 1 12 9
203 200 197 200 199 197 204 197 199 196 195 197 190 183 199 197 195 193 194 195 186 190 189 208 211 202 186 203 184 150 138 250 279 335 2 354 8 13 18 21 19 29 38
210 206 205 204 200 189 203 201 198 196 198 202 197 196 201 201 196 191 193 189 178 204 193 209 199 196 190 180 166 161 167 173 280 325 352 13 29 35 32 29 31 44 42
219 213 208 208 202 191 198 201 193 191 202 204 204 202 197 201 199 195 194 189 198 192 197 203 195 192 197 184 178 158 164 170 182 303 337 3 25 37 31 29 26 23 13
221 216 215 212 210 200 196 191 194 197 206 204 206 202 198 204 200 202 197 198 198 201 204 202 194 196 186 180 176 174 185 197 171 167 301 340 3 17 23 22 10 353 344
220 223 219 213 211 206 197 202 202 202 205 208 208 204 203 208 204 202 202 200 205 199 198 194 191 176 181 170 139 127 218 245 198 190 178 193 327 358 10 6 4 357 348
217 225 215 212 209 205 203 206 204 203 205 206 211 208 206 208 205 204 203 206 203 198 199 193 183 188 179 185 175 182 196 268 113 240 298 313 158 177 329 1 359 359 346
215 222 214 210 210 207 209 205 201 204 205 207 214 211 208 207 206 204 207 209 203 201 202 198 192 186 186 180 189 187 173 191 216 256 130 289 338 331 357 0 350 352 337
207 212 214 205 211 210 207 203 199 204 199 207 213 213 208 207 205 205 211 205 204 205 205 205 198 191 186 186 192 202 207 232 223 244 197 229 292 311 336 349 179 312 350
197 211 215 212 213 216 215 204 204 208 204 210 209 216 208 209 207 208 213 206 205 205 208 206 199 192 193 188 188 195 201 221 240 200 236 258 246 242 306 307 285 239 226
201 206 215 215 213 213 213 206 202 204 206 207 210 216 209 210 208 209 211 207 204 211 212 206 201 203 202 198 185 189 206 205 194 218 237 251 278 269 255 302 302 291 288
201 205 215 214 212 212 207 207 202 203 199 207 212 216 212 212 209 209 209 209 210 211 210 206 204 199 210 209 201 206 204 166 182 178 227 260 281 289 272 214 277 301 308
193 199 211 214 213 216 212 202 204 202 205 207 211 216 215 214 209 210 209 211 210 209 211 208 205 203 205 214 209 212 216 221 216 182 187 215 258 275 289 288 246 248 289
189 194 201 205 209 216 216 204 206 206 203 204 209 215 216 214 211 211 211 212 210 211 211 211 207 205 200 205 203 210 210 208 226 218 205 198 201 204 250 279 290 265 295